{"data":{"norad_id":68501,"epoch":"2026-05-25T03:00:22.019904Z","epoch_age_seconds":67665,"freshness":"FRESH","line1":"1 68501U 26067CP  26145.12525486  .00001280  00000+0  13388-3 0  9998","line2":"2 68501  97.7621 103.7183 0004993  98.2882 261.8903 14.91369902  8280","mean_motion":14.91369902,"eccentricity":0.0004993,"inclination_deg":97.7621,"raan_deg":103.7183,"arg_perigee_deg":98.2882,"mean_anomaly_deg":261.8903,"bstar":0.00013388,"rev_number":828,"period_min":96.555522413916,"perigee_km":590.18206383233,"apogee_km":597.14410339582,"semimajor_km":6971.8000836141,"source":"CELESTRAK","updated_at":"2026-05-25T13:38:07.879116Z"}}